DW0708 Weather Reports


time (UTC)temp
C
wind
direction
speed
KPH
gust
KPH
rain 1hr
cm
rain 24hr
cm
rain mn
cm
humidity
%
barometer
mb
20260510033510 24 166 1.6 11.3 0.00 0.00 0.00 74 1011.8
20260510033027 24 146 1.6 12.9 0.00 0.00 0.00 74 1011.8
20260510032510 24 141 3.2 12.9 0.00 0.00 0.00 74 1011.9
20260510032012 24 0 1.6 11.3 0.00 0.00 0.00 73 1012.0
20260510031533 24 78 1.6 16.1 0.00 0.00 0.00 74 1012.1
20260510031009 24 95 1.6 17.7 0.00 0.00 0.00 74 1012.2
20260510030512 24 0 3.2 17.7 0.00 0.00 0.00 75 1012.0
20260510030027 24 89 4.8 17.7 0.00 0.00 0.00 76 1012.1
20260510025511 24 145 3.2 20.9 0.00 0.00 0.00 77 1011.9
20260510025012 24 146 8.0 22.5 0.00 0.00 0.00 77 1011.8
20260510024530 24 75 3.2 22.5 0.00 0.00 0.00 74 1011.6
20260510024011 24 82 3.2 22.5 0.00 0.00 0.00 72 1011.5
20260510023511 24 0 0.0 3.2 0.00 0.00 0.00 72 1011.1
20260510023030 24 115 0.0 3.2 0.00 0.00 0.00 71 1010.8
20260510022516 25 0 0.0 1.6 0.00 0.00 0.00 70 1010.3
20260510022013 25 0 0.0 3.2 0.00 0.00 0.00 70 1010.1
20260510021535 25 0 0.0 3.2 0.00 0.00 0.00 69 1010.0
20260510021011 25 0 0.0 3.2 0.00 0.00 0.00 69 1009.8
20260510020512 25 0 0.0 3.2 0.00 0.00 0.00 68 1009.7
20260510020030 26 0 0.0 0.0 0.00 0.00 0.00 67 1009.6
20260510015513 26 0 0.0 0.0 0.00 0.00 0.00 67 1009.7
20260510015011 26 0 0.0 1.6 0.00 0.00 0.00 66 1009.5
20260510014532 26 0 0.0 6.4 0.00 0.00 0.00 67 1009.3
20260510014012 26 0 0.0 6.4 0.00 0.00 0.00 67 1009.3
20260510013514 26 173 0.0 6.4 0.00 0.00 0.00 66 1009.4
20260510013029 26 0 0.0 9.7 0.00 0.00 0.00 65 1009.5
20260510012512 27 131 1.6 9.7 0.00 0.00 0.00 65 1009.3
20260510012011 27 0 1.6 12.9 0.00 0.00 0.00 65 1009.2
20260510011528 27 165 3.2 16.1 0.00 0.00 0.00 66 1009.3
20260510011011 27 131 3.2 16.1 0.00 0.00 0.00 66 1009.2
20260510010509 27 138 0.0 3.2 0.00 0.00 0.00 68 1009.2
20260510010030 27 0 0.0 3.2 0.00 0.00 0.00 69 1008.9
20260510005511 27 0 0.0 3.2 0.00 0.00 0.00 71 1008.8
20260510005011 28 0 0.0 0.0 0.00 0.00 0.00 70 1008.8
20260510004529 28 0 0.0 4.8 0.00 0.00 0.00 71 1008.5
20260510004013 28 0 0.0 12.9 0.00 0.00 0.00 72 1008.5
20260510003510 28 0 0.0 12.9 0.00 0.00 0.00 73 1008.5
20260510003026 28 144 1.6 12.9 0.00 0.00 0.00 77 1008.7
20260510002509 28 0 0.0 0.0 0.00 0.00 0.00 79 1008.6
20260510002011 28 0 0.0 0.0 0.00 0.00 0.00 78 1008.6
20260510001538 28 0 0.0 0.0 0.00 0.00 0.00 77 1008.6
20260510001014 28 0 0.0 0.0 0.00 0.00 0.00 77 1008.4
20260510000512 29 0 0.0 0.0 0.00 0.00 0.00 77 1008.3
20260510000030 29 0 0.0 0.0 0.00 0.00 0.00 76 1008.2
20260509235511 29 0 0.0 0.0 0.00 0.00 0.00 76 1008.2
20260509235013 29 0 0.0 0.0 0.00 0.00 0.00 76 1008.2
20260509234530 29 0 0.0 0.0 0.00 0.00 0.00 73 1008.3
20260509234011 29 0 0.0 0.0 0.00 0.00 0.00 72 1008.3
20260509233511 30 0 0.0 0.0 0.00 0.00 0.00 71 1008.4
20260509233030 30 0 0.0 0.0 0.00 0.00 0.00 71 1008.4
20260509232512 30 0 0.0 0.0 0.00 0.00 0.00 71 1008.5
20260509232014 30 0 0.0 0.0 0.00 0.00 0.00 71 1008.3
20260509231528 30 0 0.0 0.0 0.00 0.00 0.00 70 1008.3
20260509231010 30 0 0.0 0.0 0.00 0.00 0.00 69 1008.3
20260509230510 31 0 0.0 0.0 0.00 0.00 0.00 69 1008.3
20260509230030 31 0 0.0 0.0 0.00 0.00 0.00 67 1008.1
20260509225512 31 0 0.0 0.0 0.00 0.00 0.00 66 1008.0
20260509225016 32 0 0.0 0.0 0.00 0.00 0.00 65 1008.0
20260509224530 32 0 0.0 0.0 0.00 0.00 0.00 64 1008.2
20260509224012 32 0 0.0 0.0 0.00 0.00 0.00 63 1008.2
20260509223514 33 0 0.0 0.0 0.00 0.00 0.00 60 1008.0
20260509223028 33 0 0.0 0.0 0.00 0.00 0.00 60 1008.1
20260509222511 33 0 0.0 0.0 0.00 0.00 0.00 59 1008.0
20260509222017 33 0 0.0 3.2 0.00 0.00 0.00 58 1008.0
20260509221530 33 0 0.0 3.2 0.00 0.00 0.00 57 1008.0
20260509221012 34 0 0.0 1.6 0.00 0.00 0.00 55 1007.8
20260509220511 34 0 0.0 1.6 0.00 0.00 0.00 54 1008.0
20260509220029 35 0 0.0 3.2 0.00 0.00 0.00 54 1007.9
20260509215511 35 0 0.0 3.2 0.00 0.00 0.00 53 1008.0
20260509215011 35 0 0.0 1.6 0.00 0.00 0.00 53 1007.8
20260509214536 35 0 0.0 1.6 0.00 0.00 0.00 54 1008.0
20260509214011 35 0 0.0 1.6 0.00 0.00 0.00 55 1008.0
20260509213515 34 0 0.0 3.2 0.00 0.00 0.00 56 1008.0
20260509213028 34 0 0.0 8.0 0.00 0.00 0.00 54 1008.0
20260509212512 34 103 0.0 8.0 0.00 0.00 0.00 54 1008.0
20260509212013 34 0 0.0 3.2 0.00 0.00 0.00 56 1008.0
20260509211531 34 0 0.0 9.7 0.00 0.00 0.00 54 1008.1
20260509211012 34 0 0.0 9.7 0.00 0.00 0.00 54 1008.1
20260509210514 34 0 0.0 6.4 0.00 0.00 0.00 56 1008.3
20260509210033 34 0 0.0 3.2 0.00 0.00 0.00 57 1008.2
20260509205513 33 58 0.0 11.3 0.00 0.00 0.00 58 1008.3
20260509205012 33 0 0.0 11.3 0.00 0.00 0.00 57 1008.4
20260509204537 33 0 3.2 11.3 0.00 0.00 0.00 56 1008.5
20260509204013 33 0 0.0 3.2 0.00 0.00 0.00 58 1008.5
20260509203510 33 0 0.0 4.8 0.00 0.00 0.00 59 1008.6
20260509203027 33 0 0.0 4.8 0.00 0.00 0.00 58 1008.6
20260509202513 33 0 0.0 4.8 0.00 0.00 0.00 58 1008.7
20260509202013 33 0 0.0 4.8 0.00 0.00 0.00 59 1008.8
20260509201532 33 141 0.0 4.8 0.00 0.00 0.00 59 1008.8
20260509201013 33 0 0.0 4.8 0.00 0.00 0.00 59 1008.7
20260509200515 33 0 0.0 4.8 0.00 0.00 0.00 59 1008.9
20260509200038 33 0 0.0 4.8 0.00 0.00 0.00 62 1008.9
20260509195514 32 0 0.0 6.4 0.00 0.00 0.00 60 1009.0
20260509195015 32 0 0.0 6.4 0.00 0.00 0.00 62 1009.1
20260509194537 32 0 0.0 3.2 0.00 0.00 0.00 61 1009.2
20260509194015 32 0 0.0 8.0 0.00 0.00 0.00 62 1009.1
20260509193512 32 0 1.6 8.0 0.00 0.00 0.00 61 1009.3
20260509193036 32 0 0.0 8.0 0.00 0.00 0.00 59 1009.2
20260509192513 32 0 0.0 4.8 0.00 0.00 0.00 59 1009.2
20260509192014 33 0 0.0 3.2 0.00 0.00 0.00 59 1009.2
20260509191530 33 0 0.0 8.0 0.00 0.00 0.00 60 1009.3
20260509191015 33 208 1.6 8.0 0.00 0.00 0.00 60 1009.5
20260509190513 33 0 0.0 4.8 0.00 0.00 0.00 59 1009.5
20260509190029 33 0 1.6 4.8 0.00 0.00 0.00 57 1009.5
20260509185510 33 0 0.0 1.6 0.00 0.00 0.00 61 1009.7
20260509185010 33 0 0.0 0.0 0.00 0.00 0.00 61 1009.7
20260509184533 32 0 0.0 6.4 0.00 0.00 0.00 64 1009.8
20260509184012 31 0 0.0 6.4 0.00 0.00 0.00 65 1009.7
20260509183514 31 121 0.0 4.8 0.00 0.00 0.00 65 1009.9
20260509183032 31 0 0.0 4.8 0.00 0.00 0.00 69 1009.9
20260509182513 31 0 0.0 4.8 0.00 0.00 0.00 65 1010.0
20260509182014 31 0 0.0 6.4 0.00 0.00 0.00 68 1010.0
20260509181527 31 218 1.6 6.4 0.00 0.00 0.00 68 1010.0
20260509181012 31 0 0.0 6.4 0.00 0.00 0.00 67 1010.3
20260509180515 31 0 0.0 3.2 0.00 0.00 0.00 70 1010.4
20260509180027 30 0 0.0 0.0 0.00 0.00 0.00 70 1010.2
20260509175513 30 0 0.0 3.2 0.00 0.00 0.00 70 1010.4
20260509175010 30 0 0.0 3.2 0.00 0.00 0.00 71 1010.4
20260509174527 30 0 0.0 1.6 0.00 0.00 0.00 69 1010.5
20260509174011 30 0 0.0 0.0 0.00 0.00 0.00 70 1010.5
20260509173512 30 0 0.0 1.6 0.00 0.00 0.00 69 1010.5
20260509173028 30 0 0.0 1.6 0.00 0.00 0.00 70 1010.5
20260509172510 30 0 0.0 3.2 0.00 0.00 0.00 70 1010.6
20260509172013 30 0 0.0 3.2 0.00 0.00 0.00 72 1010.6
20260509171527 29 0 0.0 4.8 0.00 0.00 0.00 73 1010.4
20260509171013 29 0 0.0 4.8 0.00 0.00 0.00 74 1010.4
20260509170512 28 215 0.0 4.8 0.00 0.00 0.00 72 1010.4
20260509170030 28 0 0.0 4.8 0.00 0.00 0.00 75 1010.3
20260509165510 28 0 0.0 4.8 0.00 0.00 0.00 75 1010.4
20260509165010 27 0 0.0 4.8 0.00 0.00 0.00 77 1010.4
20260509164530 27 0 1.6 8.0 0.00 0.00 0.00 78 1010.4
20260509164014 27 0 1.6 8.0 0.00 0.00 0.00 80 1010.3
20260509163510 27 60 1.6 8.0 0.00 0.00 0.00 81 1010.1
20260509163031 26 187 1.6 6.4 0.00 0.00 0.00 82 1010.2
20260509162515 26 158 3.2 6.4 0.00 0.00 0.00 84 1010.2
20260509162013 26 140 0.0 4.8 0.00 0.00 0.00 86 1010.4
20260509161530 26 0 0.0 3.2 0.00 0.00 0.00 86 1010.5
20260509161012 26 0 0.0 3.2 0.00 0.00 0.00 87 1010.8
20260509160514 25 0 0.0 3.2 0.00 0.00 0.00 87 1010.7
20260509160028 25 0 0.0 3.2 0.00 0.00 0.00 87 1010.6
20260509155512 25 0 0.0 1.6 0.00 0.00 0.00 88 1010.8
20260509155013 25 0 0.0 6.4 0.00 0.00 0.00 89 1010.9
20260509154533 25 0 0.0 6.4 0.00 0.00 0.00 89 1011.0
20260509154014 25 101 0.0 6.4 0.00 0.00 0.00 90 1011.0
20260509153518 25 0 0.0 8.0 0.00 0.00 0.00 91 1010.9
20260509153032 25 0 1.6 8.0 0.00 0.00 0.00 92 1010.9
20260509152513 25 0 0.0 4.8 0.00 0.00 0.00 93 1010.8
20260509152012 24 0 0.0 6.4 0.00 0.00 0.00 93 1011.0
20260509151533 24 158 1.6 6.4 0.00 0.00 0.00 93 1010.9
20260509151015 24 0 0.0 4.8 0.00 0.00 0.00 94 1011.0
20260509150510 24 242 0.0 4.8 0.00 0.00 0.00 94 1010.8
20260509150030 24 0 0.0 1.6 0.00 0.00 0.00 94 1010.7
20260509145513 23 0 0.0 3.2 0.00 0.00 0.00 94 1010.8
20260509145011 23 0 0.0 4.8 0.00 0.00 0.00 94 1010.8
20260509144529 23 0 0.0 4.8 0.00 0.00 0.00 94 1010.7
20260509144012 23 0 0.0 3.2 0.00 0.00 0.00 95 1010.6
20260509143513 23 113 0.0 3.2 0.00 0.00 0.00 95 1010.5
20260509143038 23 0 0.0 3.2 0.00 0.00 0.00 95 1010.6
20260509142514 23 0 0.0 1.6 0.00 0.00 0.00 95 1010.4
20260509142013 23 0 0.0 1.6 0.00 0.00 0.00 95 1010.3
20260509141529 23 0 0.0 1.6 0.00 0.00 0.00 95 1010.2
20260509141012 23 0 0.0 0.0 0.00 0.00 0.00 95 1010.2
20260509140513 23 0 0.0 0.0 0.00 0.00 0.00 95 1010.2
20260509140052 23 0 0.0 0.0 0.00 0.00 0.00 95 1010.4
20260509135513 23 0 0.0 0.0 0.00 0.00 0.00 95 1010.2
20260509135015 23 0 0.0 0.0 0.00 0.00 0.00 95 1010.3
20260509134530 23 0 0.0 0.0 0.00 0.00 0.00 95 1010.4
20260509134013 23 0 0.0 1.6 0.00 0.00 0.00 95 1010.7
20260509133513 23 0 0.0 6.4 0.00 0.00 0.00 95 1010.8
20260509133029 23 0 0.0 6.4 0.00 0.00 0.00 95 1010.7
20260509132514 23 0 0.0 3.2 0.00 0.00 0.00 95 1010.9
20260509132015 23 0 0.0 3.2 0.00 0.00 0.00 95 1010.7
20260509131535 23 111 0.0 3.2 0.00 0.00 0.00 95 1010.8
20260509131014 23 0 0.0 1.6 0.00 0.00 0.00 95 1010.9
20260509130509 22 0 0.0 1.6 0.00 0.00 0.00 95 1010.9
20260509130029 22 0 0.0 0.0 0.00 0.00 0.00 95 1010.6
20260509125510 22 0 0.0 0.0 0.00 0.00 0.00 95 1010.7
20260509125014 22 0 0.0 0.0 0.00 0.00 0.00 95 1010.8
20260509124535 22 0 0.0 0.0 0.00 0.00 0.00 95 1010.7
20260509124012 22 0 0.0 0.0 0.00 0.00 0.00 95 1010.7
20260509123511 22 0 0.0 0.0 0.00 0.00 0.00 95 1010.5
20260509123028 22 0 0.0 0.0 0.00 0.00 0.00 95 1010.7
20260509122512 22 0 0.0 0.0 0.00 0.00 0.00 95 1010.7
20260509122012 22 0 0.0 0.0 0.00 0.00 0.00 95 1010.7
20260509121544 22 0 0.0 0.0 0.00 0.00 0.00 95 1010.6
20260509121019 22 0 0.0 0.0 0.00 0.00 0.00 94 1010.5
20260509120511 22 0 0.0 0.0 0.00 0.00 0.00 94 1010.3
20260509120035 22 0 0.0 0.0 0.00 0.00 0.00 94 1010.2
20260509115510 22 0 0.0 0.0 0.00 0.00 0.00 94 1010.1
20260509115013 22 0 0.0 1.6 0.00 0.00 0.00 94 1010.1
20260509114529 22 0 0.0 1.6 0.00 0.00 0.00 94 1010.1
20260509114011 22 0 0.0 1.6 0.00 0.00 0.00 94 1010.2
20260509113512 22 0 0.0 0.0 0.00 0.00 0.00 94 1010.2
20260509113027 22 0 0.0 0.0 0.00 0.00 0.00 94 1010.2
20260509112512 22 0 0.0 1.6 0.00 0.00 0.00 94 1010.2
20260509112012 22 0 0.0 1.6 0.00 0.00 0.00 94 1010.2
20260509111013 22 0 0.0 0.0 0.00 0.00 0.00 94 1010.2
20260509110512 22 0 0.0 0.0 0.00 0.00 0.00 94 1010.1
20260509110032 22 0 0.0 0.0 0.00 0.00 0.00 94 1010.4
20260509105511 22 0 0.0 0.0 0.00 0.00 0.00 94 1010.6
20260509105013 22 0 0.0 0.0 0.00 0.00 0.00 94 1010.5
20260509104532 22 0 0.0 0.0 0.00 0.00 0.00 94 1010.5
20260509104012 22 0 0.0 0.0 0.00 0.00 0.00 94 1010.5
20260509103512 22 0 0.0 0.0 0.00 0.00 0.00 94 1010.4
20260509103035 22 0 0.0 0.0 0.00 0.00 0.00 94 1010.3
20260509102510 22 0 0.0 0.0 0.00 0.00 0.00 94 1010.2
20260509101532 22 0 0.0 3.2 0.00 0.00 0.00 94 1010.0
20260509101013 22 0 0.0 0.0 0.00 0.00 0.00 94 1009.9
20260509100512 22 0 0.0 0.0 0.00 0.00 0.00 94 1009.6
20260509095512 22 0 0.0 0.0 0.00 0.00 0.00 94 1009.7
20260509095012 22 0 0.0 1.6 0.00 0.00 0.00 94 1009.7
20260509094531 22 0 0.0 1.6 0.00 0.00 0.00 94 1009.6
20260509094011 22 0 0.0 0.0 0.00 0.00 0.00 94 1009.6
20260509093514 22 0 0.0 0.0 0.00 0.00 0.00 94 1009.9
20260509093031 22 0 0.0 0.0 0.00 0.00 0.00 94 1010.0
20260509092512 22 0 0.0 0.0 0.00 0.00 0.00 94 1010.0
20260509092009 22 0 0.0 0.0 0.00 0.00 0.00 94 1009.9
20260509091532 22 0 0.0 0.0 0.00 0.00 0.00 94 1009.9
20260509091010 22 0 0.0 0.0 0.00 0.00 0.00 94 1009.9
20260509090512 22 0 0.0 0.0 0.00 0.00 0.00 94 1010.0
20260509085509 22 0 0.0 0.0 0.00 0.00 0.00 94 1010.1
20260509085012 22 0 0.0 0.0 0.00 0.00 0.00 94 1010.2
20260509084536 22 0 0.0 0.0 0.00 0.00 0.00 94 1010.2
20260509084011 22 0 0.0 0.0 0.00 0.00 0.00 94 1010.4
20260509083512 22 0 0.0 0.0 0.00 0.00 0.00 94 1010.3
20260509083038 22 0 0.0 0.0 0.00 0.00 0.00 94 1010.2
20260509082511 22 0 0.0 0.0 0.00 0.00 0.00 94 1010.4
20260509082011 22 0 0.0 0.0 0.00 0.00 0.00 94 1010.3
20260509081530 22 0 0.0 0.0 0.00 0.00 0.00 94 1010.3
20260509081013 22 0 0.0 0.0 0.00 0.00 0.00 94 1010.4
20260509080511 22 0 0.0 1.6 0.00 0.00 0.00 94 1010.2
20260509080031 22 0 0.0 1.6 0.00 0.00 0.00 94 1010.0
20260509075516 22 0 0.0 1.6 0.00 0.00 0.00 94 1010.1
20260509075016 22 0 0.0 1.6 0.00 0.00 0.00 94 1010.1
20260509074530 22 0 0.0 1.6 0.00 0.00 0.00 94 1010.1
20260509074012 22 0 0.0 3.2 0.00 0.00 0.00 94 1010.0
20260509073511 22 0 0.0 3.2 0.00 0.00 0.00 94 1009.9
20260509073029 22 0 0.0 1.6 0.00 0.00 0.00 93 1009.9
20260509072510 22 0 0.0 0.0 0.00 0.00 0.00 93 1010.0
20260509072012 22 0 0.0 1.6 0.00 0.00 0.00 93 1010.1
20260509071528 22 0 0.0 3.2 0.00 0.00 0.00 93 1010.1
20260509071014 22 0 0.0 3.2 0.00 0.00 0.00 93 1010.0
20260509070512 22 0 0.0 3.2 0.00 0.00 0.00 93 1010.1
20260509070032 22 0 0.0 0.0 0.00 0.00 0.00 93 1010.1
20260509065511 22 0 0.0 0.0 0.00 0.00 0.00 93 1010.1
20260509065014 22 0 0.0 1.6 0.00 0.00 0.00 93 1010.1
20260509064528 22 0 0.0 4.8 0.00 0.00 0.00 93 1010.1
20260509064014 22 0 0.0 4.8 0.00 0.00 0.00 93 1010.2
20260509063512 22 0 0.0 6.4 0.00 0.00 0.00 93 1010.2
20260509063027 22 0 0.0 6.4 0.00 0.00 0.00 93 1010.1
20260509062513 22 0 0.0 3.2 0.00 0.00 0.00 93 1010.2
20260509062013 22 0 0.0 3.2 0.00 0.00 0.00 93 1010.2
20260509061533 22 136 0.0 3.2 0.00 0.00 0.00 93 1010.3
20260509061011 22 0 0.0 3.2 0.00 0.00 0.00 93 1010.5
20260509060515 22 0 0.0 3.2 0.00 0.00 0.00 93 1010.6
20260509060029 22 0 0.0 1.6 0.00 0.00 0.00 93 1010.6
20260509055513 22 0 0.0 1.6 0.00 0.00 0.00 93 1010.6
20260509055013 22 0 0.0 1.6 0.00 0.00 0.00 93 1010.6
20260509054528 22 0 0.0 4.8 0.00 0.00 0.00 93 1010.6
20260509054014 22 0 0.0 4.8 0.00 0.00 0.00 93 1010.7
20260509053514 22 117 0.0 1.6 0.00 0.00 0.00 93 1010.6
20260509053037 22 0 0.0 1.6 0.00 0.00 0.00 93 1010.7
20260509052512 22 0 0.0 4.8 0.00 0.00 0.00 93 1010.7
20260509052012 22 0 0.0 4.8 0.00 0.00 0.00 93 1010.7
20260509051529 22 114 0.0 4.8 0.00 0.00 0.00 93 1010.6
20260509051010 22 0 0.0 3.2 0.00 0.00 0.00 93 1010.5
20260509050512 22 0 0.0 3.2 0.00 0.00 0.00 93 1010.5
20260509050032 22 0 0.0 3.2 0.00 0.00 0.00 93 1010.5
20260509045512 22 0 0.0 3.2 0.00 0.00 0.00 93 1010.6
20260509045012 22 0 0.0 6.4 0.00 0.00 0.00 93 1010.7
20260509044529 22 0 0.0 6.4 0.00 0.00 0.00 92 1010.8
20260509044013 22 0 0.0 4.8 0.00 0.00 0.00 92 1010.8
20260509043511 22 0 0.0 3.2 0.00 0.00 0.00 92 1010.7
20260509043029 22 0 0.0 6.4 0.00 0.00 0.00 92 1010.6
20260509042510 22 0 0.0 6.4 0.00 0.00 0.00 92 1010.6
20260509042015 22 98 0.0 9.7 0.00 0.00 0.00 92 1010.6
20260509041539 22 203 0.0 9.7 0.00 0.00 0.00 92 1010.6
20260509041012 22 0 0.0 1.6 0.00 0.00 0.00 92 1010.7
20260509040514 22 0 0.0 3.2 0.00 0.00 0.00 92 1010.7
20260509040029 22 0 0.0 3.2 0.00 0.00 0.00 92 1010.5
20260509035512 22 128 0.0 3.2 0.00 0.00 0.00 92 1010.6
20260509035011 22 0 0.0 4.8 0.00 0.00 0.00 92 1010.4
20260509034529 22 0 0.0 4.8 0.00 0.00 0.00 92 1010.3
20260509034011 22 69 0.0 6.4 0.00 0.00 0.00 92 1010.3